Theta_e
309 308 308 308 307 305 301 294 291 302 306 296 295 292 297 299 299 301 299 298 294 291 292 289 290 291 294 297 296 290 291 287 283 287 293 294 291 289 287 278 278 285 281 280
310 308 307 308 307 306 297 291 291 302 304 290 289 294 295 298 298 298 297 295 296 295 291 287 292 294 298 296 294 292 291 284 279 282 286 289 287 289 288 286 285 280 274 280
310 308 307 308 307 306 296 292 288 295 296 295 290 290 292 293 301 299 298 296 296 293 290 293 289 291 296 297 295 300 295 287 284 281 284 286 286 288 288 284 275 279 281 283
311 309 307 308 306 306 299 297 293 294 286 292 291 294 292 291 292 298 297 294 294 292 286 289 289 292 292 295 297 292 289 284 286 287 288 289 288 287 287 283 284 279 283 283
311 309 306 307 306 305 298 295 294 296 293 294 290 291 291 291 294 293 291 291 293 293 289 290 288 290 288 288 292 287 285 280 282 282 285 286 285 287 286 286 286 285 286 287
311 310 306 306 306 304 295 299 300 295 293 292 291 291 292 293 294 295 295 294 292 291 293 295 294 291 291 291 289 286 283 280 279 278 284 285 280 284 286 288 291 290 285 289
311 310 307 306 305 304 299 298 297 292 288 291 290 292 294 292 293 293 296 295 292 296 298 296 292 290 290 290 289 289 283 282 281 278 280 273 283 294 294 291 292 292 292 294
311 311 309 306 306 305 300 299 297 294 288 291 290 291 291 294 293 292 292 294 298 299 294 286 284 287 288 289 288 287 287 282 277 275 273 281 286 292 290 288 288 294 293 293
311 311 310 307 304 305 302 300 301 297 290 287 293 289 290 287 289 289 293 297 298 297 289 286 282 281 287 287 290 292 288 289 280 274 275 272 283 293 295 295 282 294 293 292
311 312 311 308 305 305 302 300 302 296 290 292 293 289 289 293 292 288 291 291 292 295 287 284 282 283 290 282 285 287 287 286 280 280 280 282 291 294 297 283 281 291 292 292
311 311 312 309 307 306 302 300 302 297 291 292 295 294 290 292 292 287 291 289 291 290 286 286 286 285 287 285 288 288 285 284 282 284 281 276 293 292 286 289 291 292 293 294
310 311 311 311 308 306 305 297 302 301 294 293 296 296 296 295 295 293 292 289 289 292 289 288 286 284 285 284 279 291 283 287 282 286 281 289 291 291 293 292 292 292 294 296
309 310 311 311 309 307 305 299 299 298 293 292 292 290 295 297 297 299 290 291 294 294 295 290 287 283 286 279 283 285 288 291 286 285 288 289 291 292 293 294 292 296 297 297
309 310 310 310 310 308 305 299 300 297 293 286 287 295 293 298 298 297 297 296 297 297 296 291 287 283 289 284 286 284 287 289 285 285 287 289 291 293 293 294 296 297 298 298
309 310 310 311 310 308 304 301 300 300 293 287 288 292 293 294 295 298 297 295 294 291 290 288 285 287 287 287 286 284 289 289 284 280 287 286 289 292 294 293 294 296 296 296
309 311 311 311 309 305 299 293 299 301 299 289 284 288 289 292 295 295 296 296 294 294 291 290 290 291 288 282 281 289 293 294 293 290 289 291 293 294 295 295 295 297 297 297
309 310 310 309 305 300 294 292 297 301 299 289 284 284 290 297 296 296 296 297 295 293 292 289 288 288 292 289 284 288 290 289 289 291 293 291 293 292 294 295 297 299 298 298
309 309 308 306 303 301 296 299 302 300 294 291 284 283 288 297 292 291 296 292 293 293 292 290 288 288 286 283 286 291 289 289 290 293 294 294 294 294 295 298 296 295 295 295
308 306 304 300 297 293 295 303 303 300 294 286 285 282 281 297 295 295 295 295 288 294 289 289 290 287 286 286 290 290 291 291 291 293 294 294 294 294 295 295 294 293 293 294
303 299 294 290 294 302 302 296 291 290 291 288 284 288 284 291 290 292 292 293 289 286 289 292 287 287 292 293 292 292 293 294 293 291 290 292 292 293 293 293 293 294 293 293
296 292 291 297 302 296 292 287 285 286 282 286 285 287 285 294 286 287 293 288 290 285 287 287 286 287 290 293 293 294 294 294 294 294 295 294 293 293 292 292 293 293 293 292
296 295 298 296 292 289 285 284 286 284 279 285 285 287 288 290 293 288 291 288 289 282 290 287 284 288 291 292 292 293 294 294 294 295 294 293 293 293 293 292 292 293 293 293
298 293 289 288 287 282 280 279 283 284 286 289 290 288 289 289 291 289 288 285 282 291 286 284 287 290 292 293 293 293 294 295 294 292 292 293 294 294 293 292 293 293 292 293
289 287 281 283 282 282 284 284 286 290 293 293 293 291 287 289 287 288 285 289 290 284 283 282 287 290 292 294 294 293 293 293 291 291 291 292 293 292 292 292 292 292 291 291
288 288 282 282 285 289 290 291 291 294 296 294 293 291 290 287 286 288 287 285 285 281 283 285 286 290 292 291 292 292 292 290 290 290 290 291 292 291 291 292 292 292 292 290
291 288 286 286 288 289 289 291 292 296 294 296 294 289 287 285 283 283 283 280 276 278 281 286 287 290 287 287 289 292 293 290 289 288 291 292 292 291 290 292 291 292 292 289
287 286 290 286 289 291 292 294 294 298 295 290 291 287 284 286 280 279 280 277 280 284 285 286 287 286 287 288 290 293 293 290 289 288 289 290 291 291 291 289 290 291 291 289
Wind_Speed
10 11 13 16 18 22 7 3 3 4 4 3 1 1 3 9 8 13 9 7 3 2 4 3 5 6 3 7 3 4 4 3 4 8 4 4 2 4 5 5 4 3 3 12
9 9 11 13 17 14 4 4 4 6 3 1 3 6 7 8 5 4 10 8 5 2 2 2 3 3 2 2 3 2 2 2 3 8 5 4 2 2 2 2 2 6 4 11
8 8 9 11 15 14 3 3 5 5 5 3 4 5 5 10 10 3 7 10 4 9 4 2 5 7 5 4 1 2 2 4 7 10 7 4 4 8 6 6 3 5 12 21
8 7 6 9 13 17 2 3 3 1 5 3 7 3 5 10 8 1 3 5 5 6 6 11 4 4 14 8 6 2 5 5 6 5 4 6 11 12 10 9 11 8 16 12
8 6 4 5 11 15 4 2 4 4 5 6 4 1 3 6 7 4 7 2 9 6 5 10 18 14 4 6 3 6 1 4 2 8 11 12 13 12 9 10 14 14 14 7
9 7 5 2 7 6 2 1 1 0 3 4 4 3 4 3 12 7 9 6 9 10 13 12 12 12 14 12 9 6 5 4 2 5 3 4 6 5 6 3 1 3 4 2
9 8 7 5 1 3 1 0 1 1 3 4 6 12 14 13 13 14 10 10 8 6 18 16 11 12 15 13 13 7 6 6 4 3 3 1 3 2 5 2 2 3 2 3
9 10 10 10 7 5 1 2 1 1 3 5 11 12 13 9 11 14 12 11 7 9 14 5 7 4 2 2 4 7 7 5 1 2 2 6 3 2 1 1 5 1 3 7
9 10 12 13 9 8 2 2 2 1 2 4 6 10 8 9 7 5 5 6 8 3 4 2 3 3 3 1 3 4 5 3 5 2 2 6 4 2 4 1 6 4 6 8
10 10 12 15 13 9 3 2 4 1 3 4 4 3 4 6 3 4 5 5 6 4 3 2 4 4 3 2 3 2 3 2 5 5 5 7 3 5 4 1 5 6 6 8
12 12 10 16 16 12 6 1 5 3 3 4 8 7 4 4 3 2 3 5 2 3 2 2 1 2 2 3 3 2 3 3 3 1 3 7 1 3 3 4 4 6 9 10
13 13 12 16 18 15 11 3 2 3 3 5 2 8 14 15 14 4 4 2 3 4 2 1 2 2 3 0 3 2 2 5 4 7 6 3 4 7 7 1 7 10 11 15
14 14 13 12 18 18 13 2 3 2 2 5 5 9 8 8 16 16 4 2 5 0 3 2 2 3 2 1 4 2 3 2 3 3 1 3 6 4 3 5 8 13 15 15
14 13 14 14 18 18 14 3 3 1 1 4 7 3 7 2 3 11 17 7 3 3 2 2 2 2 3 3 3 3 5 0 1 5 5 8 2 5 9 13 15 16 16 17
15 14 13 13 16 16 5 2 3 3 2 4 7 12 11 8 10 13 14 12 9 3 3 2 3 3 0 1 1 4 3 3 3 5 2 4 10 10 14 16 16 17 20 22
16 14 12 10 14 14 3 2 2 5 3 2 4 4 6 7 3 10 13 8 6 3 3 2 3 4 1 2 3 1 3 2 2 4 6 11 15 15 13 15 21 20 21 21
13 10 8 15 20 5 3 3 3 7 3 1 4 5 5 5 3 3 4 6 3 3 2 3 2 3 2 2 4 1 2 4 6 5 7 10 11 14 18 17 20 18 18 16
9 7 11 20 16 9 1 1 11 5 2 2 3 5 3 1 2 2 3 3 2 2 2 1 2 2 2 4 6 2 1 6 3 9 9 12 15 14 17 15 16 19 18 17
5 21 20 6 2 2 2 10 11 1 2 3 3 3 3 3 2 2 1 3 3 2 3 3 3 3 5 5 1 2 3 4 8 10 12 12 13 16 16 17 18 18 19 19
21 4 3 2 2 7 8 3 1 2 1 2 4 2 4 1 2 2 2 3 3 3 4 1 3 4 1 3 3 1 2 5 8 10 11 15 15 16 18 18 16 17 19 20
2 3 2 2 8 2 1 2 3 3 3 4 4 6 6 1 3 2 3 2 3 2 2 3 3 2 3 4 2 1 4 5 7 8 11 12 13 14 16 17 18 16 21 21
6 7 4 2 2 2 3 4 3 5 5 4 4 4 4 2 1 2 3 2 2 4 5 3 3 2 4 2 3 4 4 6 8 9 11 13 14 14 14 14 15 17 20 19
3 3 3 3 3 5 6 6 4 4 4 4 4 3 3 3 4 4 3 3 3 5 3 3 1 4 2 1 2 4 5 6 9 6 9 12 13 13 13 14 14 18 19 17
3 4 6 5 5 6 6 4 3 4 3 1 4 2 3 4 4 3 2 0 3 3 2 2 1 3 3 1 1 3 6 8 7 7 10 12 13 13 14 12 13 16 18 18
3 3 5 8 4 3 3 4 1 1 1 0 3 1 1 2 2 1 2 1 2 3 1 2 3 3 2 2 3 5 6 6 5 7 9 11 12 12 14 14 13 15 16 18
3 5 3 4 3 4 4 5 6 3 5 2 1 1 2 4 2 2 4 2 4 4 3 2 4 2 0 2 3 5 4 4 5 6 9 10 11 12 13 14 13 15 17 18
4 4 4 2 3 3 3 4 3 3 3 1 1 2 3 1 2 2 3 5 4 3 2 2 4 4 3 3 4 4 3 4 5 6 9 10 10 10 12 15 16 15 16 17
Wind_Direction
316 326 328 334 340 340 24 18 360 309 356 49 63 208 251 321 30 352 3 324 348 336 354 292 222 221 189 24 8 349 297 169 216 232 269 302 181 182 144 136 221 231 277 268
312 324 328 334 338 7 335 357 285 308 29 74 352 344 321 309 359 7 340 311 337 342 237 307 251 312 5 73 94 140 291 306 351 329 344 355 93 202 157 98 73 204 209 270
302 316 326 331 333 346 80 25 355 331 24 40 47 17 312 345 349 332 341 315 358 358 333 264 297 298 296 10 176 142 193 193 200 248 230 188 267 273 236 165 147 239 233 278
287 301 315 332 332 335 87 26 34 53 332 347 334 27 319 315 333 151 32 306 20 333 293 313 259 315 302 278 266 153 157 218 212 241 245 250 249 246 245 216 234 209 280 261
275 277 291 329 334 341 66 35 0 3 295 284 317 132 222 249 285 309 306 243 315 311 265 283 294 292 215 241 254 172 66 243 215 263 261 239 253 251 240 246 261 260 262 261
264 254 247 275 339 5 74 343 61 191 287 296 283 230 237 269 324 283 241 326 312 297 283 271 270 252 255 245 237 189 164 162 117 266 316 314 276 259 239 270 44 279 244 274
262 243 221 203 205 55 104 210 113 199 277 274 289 300 301 294 288 288 296 295 290 250 321 306 277 257 256 250 244 191 160 153 146 259 20 252 206 34 79 129 195 243 251 323
263 243 217 205 191 178 124 161 171 221 264 257 291 288 292 313 313 279 271 290 304 305 296 281 308 321 273 208 211 193 176 131 132 150 190 294 179 99 342 27 275 215 321 313
271 253 222 208 197 188 148 206 171 252 284 241 258 306 298 293 280 305 267 344 331 301 266 244 261 293 305 333 94 60 120 96 130 100 165 239 206 299 329 121 262 67 320 284
272 264 225 208 200 197 176 227 182 198 252 252 212 245 316 318 289 274 290 332 315 241 247 256 225 250 312 19 33 233 129 119 194 225 232 275 170 289 300 238 253 306 309 304
267 261 245 203 200 202 186 231 186 189 229 255 243 261 225 255 236 244 350 314 139 278 243 251 327 302 356 321 241 236 194 186 212 245 247 272 136 357 161 222 298 291 290 275
265 260 243 206 201 199 188 245 185 196 226 266 234 233 230 235 246 252 205 244 307 273 285 301 325 334 334 28 284 21 189 193 196 205 224 227 202 213 250 238 265 279 276 286
274 256 239 230 201 195 187 182 156 176 265 277 252 247 256 225 231 220 224 215 215 219 347 331 282 270 120 255 250 304 302 149 223 22 289 267 279 289 196 258 264 288 286 280
277 258 234 228 204 193 187 175 164 147 279 274 280 326 281 207 197 197 211 247 300 299 248 216 267 239 175 243 257 207 219 336 241 268 300 317 347 236 318 306 306 297 291 288
281 262 238 227 200 181 170 143 192 177 198 286 288 303 281 261 225 187 199 229 247 256 243 217 237 251 328 234 317 249 191 191 172 243 253 235 279 300 303 301 299 304 302 301
270 256 241 213 165 132 114 277 182 195 170 293 297 287 291 309 149 187 174 216 224 209 199 237 265 262 242 269 255 258 107 87 57 284 303 285 285 293 295 304 303 299 300 297
265 254 247 162 142 128 161 194 150 146 113 239 288 283 266 247 191 154 168 203 204 198 200 230 227 280 114 260 250 208 41 325 291 274 295 297 309 305 303 299 304 310 306 306
247 239 159 130 117 101 120 180 138 136 130 231 267 271 294 289 236 180 172 157 163 188 190 241 235 299 178 250 251 152 0 319 295 330 310 287 292 299 303 312 314 311 316 313
167 115 101 85 83 170 210 178 172 108 194 240 228 256 275 347 283 148 88 133 193 162 213 228 149 229 225 234 271 25 325 321 309 309 299 300 307 307 317 317 321 319 314 321
121 81 100 163 196 135 122 105 114 187 214 236 246 251 262 65 25 228 213 169 216 208 216 209 211 248 133 123 118 178 339 334 325 320 322 319 320 328 323 325 319 317 321 318
78 100 91 86 154 116 162 179 212 190 242 218 235 225 231 260 187 261 255 205 197 233 155 203 221 249 122 106 61 0 9 324 305 296 297 313 320 324 319 320 321 322 319 320
137 104 93 105 186 169 221 202 188 211 237 202 211 218 199 228 250 221 230 250 184 247 139 212 246 97 108 112 48 360 328 307 309 310 318 324 331 320 322 322 321 321 320 328
84 88 126 166 152 202 215 204 192 212 202 214 196 191 158 200 215 231 230 239 216 130 206 236 59 133 146 141 66 325 309 308 320 323 328 324 335 333 332 327 327 322 329 339
118 157 158 207 185 228 204 211 192 212 190 53 326 139 181 192 171 224 184 227 157 241 231 237 157 163 180 111 30 289 309 307 332 340 325 321 336 332 329 337 330 325 333 343
157 182 216 219 236 248 218 222 214 17 184 207 276 254 218 237 221 206 93 277 249 206 215 190 179 167 179 11 327 336 331 355 350 332 324 328 334 334 328 335 336 330 335 348
198 216 238 242 226 215 223 237 238 195 209 167 210 225 268 247 152 121 221 131 232 247 219 216 147 151 256 285 311 303 316 14 342 324 330 333 339 334 328 332 342 343 347 351
213 230 229 229 300 258 233 229 195 179 170 186 232 191 218 4 52 281 182 199 218 196 201 163 153 178 239 297 308 316 28 -0 340 331 341 341 339 335 344 347 345 345 356 352